When you browse on this site, cookies collect data to enhance your experience and personalize the content and advertising you see.
Visit our Privacy Policy to learn more. By continuing to use the site, you agree to this use of cookies and data.
  • Em Portugal
  • Lista de países
  • Para 7 dias
  • Temperatura da água
  • Mapas de satélite
  • Mapa do tempo
  • Widgets de tempo
  • user-avatar
    Iniciar Sessão

    Previsão horária em Oruro

    Hoje, 21 Janeiro, Segunda-feira

    Tempo Temperatura Precipitação Vento Pressão Humidade
    00:00 +9°C° 0 mm 5 m/s 477 mmHg 52%
    01:00 +8°C° 0 mm 4 m/s 476 mmHg 55%
    02:00 +7°C° 0 mm 4 m/s 476 mmHg 58%
    03:00 +7°C° 0 mm 4 m/s 476 mmHg 60%
    04:00 +7°C° 0 mm 3 m/s 475 mmHg 62%
    05:00 +7°C° 0 mm 3 m/s 475 mmHg 64%
    06:00 +8°C° 0 mm 3 m/s 476 mmHg 58%
    07:00 +8°C° 0 mm 3 m/s 477 mmHg 53%
    08:00 +9°C° 0 mm 3 m/s 477 mmHg 48%
    09:00 +12°C° 0 mm 2 m/s 479 mmHg 38%
    10:00 +14°C° 0 mm 2 m/s 480 mmHg 28%
    11:00 +16°C° 0 mm 2 m/s 481 mmHg 19%
    12:00 +17°C° 0 mm 3 m/s 481 mmHg 16%
    13:00 +19°C° 0 mm 3 m/s 482 mmHg 14%
    14:00 +20°C° 0 mm 4 m/s 482 mmHg 11%
    15:00 +20°C° 0 mm 5 m/s 482 mmHg 12%
    16:00 +20°C° 0 mm 7 m/s 481 mmHg 13%
    17:00 +20°C° 0 mm 8 m/s 481 mmHg 14%
    18:00 +17°C° 0 mm 9 m/s 480 mmHg 21%
    19:00 +15°C° 0 mm 9 m/s 479 mmHg 28%
    20:00 +12°C° 0 mm 9 m/s 478 mmHg 35%
    21:00 +11°C° 0 mm 9 m/s 478 mmHg 41%
    22:00 +10°C° 0 mm 9 m/s 478 mmHg 47%
    23:00 +8°C° 0 mm 9 m/s 478 mmHg 54%

    Amanhã, 22 Janeiro, Terça-feira

    Tempo Temperatura Precipitação Vento Pressão Humidade
    00:00 +9°C° 0 mm 8 m/s 478 mmHg 56%
    01:00 +8°C° 0 mm 7 m/s 477 mmHg 59%
    02:00 +8°C° 0 mm 6 m/s 477 mmHg 61%
    03:00 +7°C° 0 mm 5 m/s 477 mmHg 63%
    04:00 +6°C° 0 mm 4 m/s 476 mmHg 64%
    05:00 +7°C° 0 mm 3 m/s 476 mmHg 66%
    06:00 +8°C° 0 mm 3 m/s 477 mmHg 62%
    07:00 +8°C° 0 mm 3 m/s 478 mmHg 57%
    08:00 +9°C° 0 mm 3 m/s 479 mmHg 52%
    09:00 +11°C° 0 mm 4 m/s 480 mmHg 44%
    10:00 +13°C° 0 mm 4 m/s 481 mmHg 35%
    11:00 +15°C° 0 mm 4 m/s 482 mmHg 27%
    12:00 +16°C° 0 mm 5 m/s 482 mmHg 25%
    13:00 +19°C° 0 mm 5 m/s 482 mmHg 23%
    14:00 +20°C° 0 mm 6 m/s 482 mmHg 21%
    15:00 +19°C° 0 mm 6 m/s 482 mmHg 23%
    16:00 +18°C° 0 mm 7 m/s 481 mmHg 25%
    17:00 +18°C° 0 mm 7 m/s 480 mmHg 27%
    18:00 +16°C° 0 mm 7 m/s 480 mmHg 34%
    19:00 +13°C° 0 mm 8 m/s 479 mmHg 42%
    20:00 +11°C° 0 mm 8 m/s 478 mmHg 49%
    21:00 +10°C° 0 mm 8 m/s 478 mmHg 53%
    22:00 +10°C° 0 mm 7 m/s 478 mmHg 57%
    23:00 +9°C° 0 mm 6 m/s 478 mmHg 60%

    Depois de amanhã, 23 Janeiro, Quarta-feira

    Tempo Temperatura Precipitação Vento Pressão Humidade
    00:00 +8°C° 0 mm 5 m/s 478 mmHg 62%
    01:00 +8°C° 0 mm 4 m/s 477 mmHg 65%
    02:00 +8°C° 0 mm 3 m/s 477 mmHg 67%
    03:00 +8°C° 0 mm 3 m/s 476 mmHg 69%
    04:00 +7°C° 0 mm 3 m/s 476 mmHg 72%
    05:00 +7°C° 0 mm 2 m/s 476 mmHg 74%
    06:00 +8°C° 0 mm 2 m/s 477 mmHg 70%
    07:00 +8°C° 0 mm 2 m/s 478 mmHg 66%
    08:00 +9°C° 0 mm 2 m/s 478 mmHg 61%
    09:00 +11°C° 0 mm 3 m/s 480 mmHg 53%
    10:00 +13°C° 0 mm 3 m/s 481 mmHg 44%
    11:00 +14°C° 0 mm 4 m/s 482 mmHg 35%
    12:00 +15°C° 0 mm 5 m/s 482 mmHg 34%
    13:00 +16°C° 0 mm 6 m/s 481 mmHg 34%
    14:00 +16°C° 0 mm 7 m/s 481 mmHg 33%
    15:00 +16°C° 0.1 mm 7 m/s 481 mmHg 34%
    16:00 +16°C° 0.1 mm 7 m/s 480 mmHg 34%
    17:00 +16°C° 0.1 mm 7 m/s 480 mmHg 35%
    18:00 +15°C° 0 mm 7 m/s 479 mmHg 41%
    19:00 +12°C° 0 mm 7 m/s 479 mmHg 46%
    20:00 +11°C° 0 mm 7 m/s 478 mmHg 51%
    21:00 +10°C° 0 mm 7 m/s 478 mmHg 55%
    22:00 +10°C° 0 mm 7 m/s 479 mmHg 58%
    23:00 +9°C° 0 mm 6 m/s 479 mmHg 61%

    24 Janeiro, Quinta-feira

    Tempo Temperatura Precipitação Vento Pressão Humidade
    00:00 +9°C° 0 mm 6 m/s 478 mmHg 64%
    01:00 +8°C° 0 mm 5 m/s 477 mmHg 67%
    02:00 +7°C° 0 mm 4 m/s 477 mmHg 70%
    03:00 +7°C° 0 mm 4 m/s 477 mmHg 71%
    04:00 +8°C° 0 mm 3 m/s 476 mmHg 73%
    05:00 +7°C° 0 mm 3 m/s 476 mmHg 75%
    06:00 +8°C° 0 mm 3 m/s 477 mmHg 70%
    07:00 +9°C° 0 mm 3 m/s 478 mmHg 65%
    08:00 +8°C° 0 mm 4 m/s 479 mmHg 59%
    09:00 +11°C° 0 mm 4 m/s 480 mmHg 51%
    10:00 +13°C° 0 mm 4 m/s 481 mmHg 42%
    11:00 +16°C° 0 mm 5 m/s 482 mmHg 33%
    12:00 +17°C° 0 mm 5 m/s 482 mmHg 29%
    13:00 +19°C° 0 mm 6 m/s 482 mmHg 25%
    14:00 +20°C° 0 mm 7 m/s 483 mmHg 21%
    15:00 +20°C° 0 mm 7 m/s 482 mmHg 22%
    16:00 +20°C° 0 mm 7 m/s 481 mmHg 23%
    17:00 +20°C° 0 mm 8 m/s 481 mmHg 23%
    18:00 +17°C° 0 mm 8 m/s 480 mmHg 30%
    19:00 +15°C° 0 mm 8 m/s 479 mmHg 36%
    20:00 +12°C° 0 mm 8 m/s 479 mmHg 42%
    21:00 +12°C° 0 mm 7 m/s 479 mmHg 46%
    22:00 +11°C° 0 mm 6 m/s 479 mmHg 50%
    23:00 +10°C° 0 mm 5 m/s 478 mmHg 54%

    25 Janeiro, Sexta-feira

    Tempo Temperatura Precipitação Vento Pressão Humidade
    00:00 +10°C° 0 mm 4 m/s 478 mmHg 57%
    01:00 +8°C° 0 mm 4 m/s 477 mmHg 59%
    02:00 +9°C° 0 mm 3 m/s 477 mmHg 62%
    03:00 +8°C° 0 mm 3 m/s 476 mmHg 65%
    04:00 +8°C° 0 mm 3 m/s 476 mmHg 67%
    05:00 +7°C° 0 mm 2 m/s 476 mmHg 70%
    06:00 +8°C° 0 mm 2 m/s 477 mmHg 66%
    07:00 +8°C° 0 mm 2 m/s 477 mmHg 62%
    08:00 +9°C° 0 mm 2 m/s 478 mmHg 58%
    09:00 +12°C° 0 mm 2 m/s 479 mmHg 48%
    10:00 +14°C° 0 mm 2 m/s 480 mmHg 37%
    11:00 +16°C° 0 mm 2 m/s 481 mmHg 27%
    12:00 +17°C° 0 mm 2 m/s 481 mmHg 24%
    13:00 +18°C° 0 mm 2 m/s 481 mmHg 20%
    14:00 +21°C° 0 mm 1 m/s 481 mmHg 17%
    15:00 +20°C° 0 mm 2 m/s 481 mmHg 17%
    16:00 +20°C° 0 mm 3 m/s 481 mmHg 16%
    17:00 +21°C° 0 mm 3 m/s 480 mmHg 16%
    18:00 +19°C° 0 mm 5 m/s 480 mmHg 22%
    19:00 +16°C° 0 mm 6 m/s 479 mmHg 27%
    20:00 +15°C° 0 mm 7 m/s 478 mmHg 33%
    21:00 +14°C° 0 mm 6 m/s 478 mmHg 36%
    22:00 +13°C° 0 mm 6 m/s 478 mmHg 38%
    23:00 +12°C° 0 mm 5 m/s 478 mmHg 41%

    26 Janeiro, Sábado

    Tempo Temperatura Precipitação Vento Pressão Humidade
    00:00 +10°C° 0 mm 5 m/s 478 mmHg 43%
    01:00 +11°C° 0 mm 4 m/s 477 mmHg 44%
    02:00 +10°C° 0 mm 4 m/s 477 mmHg 46%
    03:00 +9°C° 0 mm 3 m/s 477 mmHg 49%
    04:00 +9°C° 0 mm 3 m/s 476 mmHg 52%
    05:00 +8°C° 0 mm 2 m/s 476 mmHg 55%
    06:00 +9°C° 0 mm 2 m/s 476 mmHg 53%
    07:00 +9°C° 0 mm 2 m/s 477 mmHg 50%
    08:00 +11°C° 0 mm 1 m/s 478 mmHg 48%
    09:00 +13°C° 0 mm 2 m/s 479 mmHg 38%
    10:00 +14°C° 0 mm 3 m/s 480 mmHg 29%
    11:00 +17°C° 0 mm 4 m/s 481 mmHg 20%
    12:00 +17°C° 0 mm 5 m/s 482 mmHg 19%
    13:00 +20°C° 0 mm 5 m/s 482 mmHg 17%
    14:00 +21°C° 0 mm 6 m/s 482 mmHg 15%
    15:00 +20°C° 0 mm 7 m/s 481 mmHg 15%
    16:00 +20°C° 0 mm 8 m/s 481 mmHg 16%
    17:00 +20°C° 0 mm 8 m/s 480 mmHg 16%
    18:00 +17°C° 0 mm 9 m/s 479 mmHg 24%
    19:00 +14°C° 0 mm 10 m/s 479 mmHg 32%
    20:00 +12°C° 0 mm 11 m/s 478 mmHg 40%
    21:00 +11°C° 0 mm 10 m/s 478 mmHg 47%
    22:00 +10°C° 0 mm 9 m/s 478 mmHg 54%
    23:00 +9°C° 0 mm 8 m/s 478 mmHg 61%
    Mostrar mais